Weather History for YWLM - March, 2013

Change the Weather History Date:

Saturday, March 2, 2013

  Actual Average Record
Temperature  
Mean Temperature 66 °F -  
Max Temperature 69 °F - - ()
Min Temperature 62 °F - - ()
Growing Degree Days 16 (Base 50)    
Moisture  
Dew Point 62 °F    
Average Humidity 89    
Maximum Humidity 100    
Minimum Humidity 77    
Precipitation  
Precipitation 0.63 in - - ()
Sea Level Pressure  
Sea Level Pressure 30.06 in    
Wind  
Wind Speed 21 mph ()    
Max Wind Speed 29 mph    
Max Gust Speed 39 mph    
Visibility 4.7 miles    
Events Rain , Hail    
T = Trace of Precipitation, MM = Missing Value Source: Averaged Metar Reports

Daily Weather History Graph

Daily Weather History Graph

Search for Another Location

Airport or City:

Trip Planner

Search our weather history database for the weather conditions in past years. The results will help you decide how hot, cold, wet, or windy it might be!

Date:

Astronomy

Mar. 02, 2013 Rise Set
Actual Time 6:41 AM AEDT 7:27 PM AEDT
Civil Twilight 6:16 AM AEDT 7:52 PM AEDT
Nautical Twilight 5:47 AM AEDT 8:21 PM AEDT
Astronomical Twilight 5:17 AM AEDT 8:51 PM AEDT
Moon 9:59 PM AEDT (3/2) 10:53 AM AEDT (3/2)
Length of Visible Light 13h 35m
Length of Day
12h 45m
Waning Gibbous, 80% of the Moon is Illuminated
Mar 2
Waning Gibbous
Mar 5
Last Quarter
Mar 12
New
Mar 20
First Quarter
Mar 27
Full

Hourly Weather History & Observations

Time (AEDT) Temp. Dew Point Humidity Pressure Visibility Wind Dir Wind Speed Gust Speed Precip Events Conditions
12:00 AM 64 °F 62 °F 93% 30.02 in 2 mi South 25.3 mph - -   Overcast
12:00 AM 64.4 °F 62.6 °F 94% 30.01 in - South 25.3 mph - N/A Rain Heavy Rain
12:11 AM 64.4 °F 62.6 °F 94% 30.01 in - South 26.5 mph - N/A Hail Light Hail
12:23 AM 64.4 °F 62.6 °F 94% 30.01 in - South 25.3 mph - N/A Rain Heavy Rain
12:27 AM 64.4 °F 62.6 °F 94% 30.01 in - South 24.2 mph - N/A Rain Heavy Rain
12:30 AM 64.4 °F 62.6 °F 94% 30.01 in - South 24.2 mph - N/A Rain Rain
12:42 AM 64.4 °F 62.6 °F 94% 30.01 in - South 26.5 mph - N/A Rain Rain
12:45 AM 64.4 °F 62.6 °F 94% 30.01 in - South 26.5 mph 38.0 mph N/A Rain Rain
12:52 AM 64.4 °F 60.8 °F 88% 30.01 in 3.1 mi SSE 28.8 mph - N/A Rain Rain
1:00 AM 64.4 °F 60.8 °F 88% 30.01 in - SSE 26.5 mph - N/A Rain Rain
1:30 AM 64.4 °F 60.8 °F 88% 30.01 in 3.1 mi SSE 23.0 mph - N/A Rain Rain
2:00 AM 63 °F 62 °F 93% 30.03 in - South 23.0 mph - -  
2:00 AM 62.6 °F 60.8 °F 94% 30.01 in - South 23.0 mph - N/A Rain Rain
2:03 AM 62.6 °F 60.8 °F 94% 30.01 in - South 23.0 mph - N/A Rain Rain
2:14 AM 62.6 °F 60.8 °F 94% 30.01 in 2.2 mi South 25.3 mph 36.8 mph N/A Rain Rain
2:23 AM 62.6 °F 60.8 °F 94% 30.01 in - South 26.5 mph 38.0 mph N/A Rain Rain
2:30 AM 62.6 °F 60.8 °F 94% 30.01 in - South 23.0 mph - N/A Rain Rain
2:38 AM 62.6 °F 60.8 °F 94% 30.01 in - South 23.0 mph - N/A Rain Heavy Rain
3:00 AM 63 °F 62 °F 95% 30.02 in 2 mi SSE 24.2 mph - -   Overcast
3:00 AM 62.6 °F 62.6 °F 100% 30.01 in 1.9 mi SSE 24.2 mph 35.7 mph N/A Rain Heavy Rain
3:30 AM 62.6 °F 60.8 °F 94% 30.01 in - SSE 23.0 mph - N/A Rain Rain
3:39 AM 62.6 °F 60.8 °F 94% 30.01 in - SSE 24.2 mph - N/A Rain Light Rain
4:00 AM 64.4 °F 60.8 °F 88% 30.01 in 4.3 mi SSE 25.3 mph - N/A Rain Rain
4:08 AM 64.4 °F 60.8 °F 88% 30.01 in 4.3 mi SSE 24.2 mph - N/A Rain Rain
4:09 AM 64.4 °F 60.8 °F 88% 30.01 in 3.7 mi SSE 24.2 mph - N/A Rain Rain
4:30 AM 62.6 °F 60.8 °F 94% 30.01 in 3.7 mi SSE 25.3 mph - N/A Rain Rain
4:40 AM 62.6 °F 60.8 °F 94% 30.01 in 5.0 mi SSE 23.0 mph - N/A Rain Light Rain
5:00 AM 63 °F 61 °F 92% 30.03 in - SSE 21.9 mph - -  
5:00 AM 62.6 °F 60.8 °F 94% 30.01 in 4.3 mi SSE 21.9 mph - N/A Rain Rain
5:01 AM 62.6 °F 60.8 °F 94% 30.01 in 3.7 mi South 20.7 mph - N/A Rain Rain
5:30 AM 62.6 °F 60.8 °F 94% 30.04 in 3.7 mi South 24.2 mph - N/A Rain Rain
5:34 AM 62.6 °F 60.8 °F 94% 30.04 in 3.7 mi South 23.0 mph 34.5 mph N/A Rain Rain
6:00 AM 64 °F 61 °F 88% 30.05 in 3 mi South 21.9 mph - -   Overcast
6:00 AM 64.4 °F 60.8 °F 88% 30.04 in 3.1 mi South 21.9 mph - N/A Rain Rain
6:16 AM 64.4 °F 60.8 °F 88% 30.04 in 3.7 mi South 21.9 mph 33.4 mph N/A Rain Rain
6:26 AM 64.4 °F 60.8 °F 88% 30.04 in 4.3 mi SSE 23.0 mph - N/A Rain Rain
6:30 AM 64.4 °F 60.8 °F 88% 30.04 in 4.3 mi South 21.9 mph - N/A Rain Rain
7:00 AM 64.4 °F 60.8 °F 88% 30.04 in 4.3 mi South 21.9 mph - N/A Rain Rain
7:07 AM 64.4 °F 60.8 °F 88% 30.06 in 3.7 mi South 24.2 mph - N/A Rain Rain
7:25 AM 64.4 °F 60.8 °F 88% 30.06 in 3.1 mi South 24.2 mph - N/A Hail Light Hail
7:30 AM 64.4 °F 60.8 °F 88% 30.06 in 4.3 mi South 24.2 mph - N/A Hail Light Hail
7:38 AM 64.4 °F 60.8 °F 88% 30.06 in 5.0 mi SSE 25.3 mph - N/A Rain Rain
7:46 AM 64.4 °F 62.6 °F 94% 30.06 in 3.7 mi SSE 24.2 mph - N/A Rain Rain
8:00 AM 64 °F 61 °F 88% 30.08 in - SSE 25.3 mph - -  
8:00 AM 64.4 °F 60.8 °F 88% 30.06 in 5.0 mi SSE 25.3 mph - N/A Rain Light Rain
8:20 AM 64.4 °F 60.8 °F 88% 30.06 in 5.0 mi SSE 25.3 mph 36.8 mph N/A Rain Light Rain
8:30 AM 64.4 °F 60.8 °F 88% 30.06 in 4.3 mi SSE 24.2 mph 39.1 mph N/A Rain Light Rain
9:00 AM 64 °F 59 °F 79% 30.10 in 6 mi SSE 26.5 mph - -   Overcast
9:00 AM 64.4 °F 59.0 °F 83% 30.09 in 4.3 mi SSE 26.5 mph - N/A Rain Light Rain
9:30 AM 64.4 °F 60.8 °F 88% 30.09 in 4.3 mi SSE 21.9 mph - N/A Rain Light Rain
10:00 AM 64.4 °F 60.8 °F 88% 30.09 in 4.3 mi SSE 21.9 mph - N/A Rain Light Rain
10:30 AM 64.4 °F 60.8 °F 88% 30.12 in 4.3 mi South 24.2 mph - N/A Rain Light Rain
10:35 AM 64.4 °F 60.8 °F 88% 30.12 in 4.3 mi South 21.9 mph 33.4 mph N/A Rain Rain Showers
11:00 AM 65 °F 63 °F 89% 30.12 in - SSE 19.6 mph - -  
11:00 AM 64.4 °F 62.6 °F 94% 30.12 in 4.3 mi SSE 19.6 mph - N/A Rain Light Rain
11:30 AM 66.2 °F 62.6 °F 88% 30.12 in 4.3 mi SSE 20.7 mph - N/A Rain Light Rain
12:00 PM 65 °F 61 °F 82% 30.12 in 4 mi SSE 24.2 mph - -   Overcast
12:00 PM 64.4 °F 60.8 °F 88% 30.09 in 4.3 mi SSE 24.2 mph - N/A Rain Light Rain
12:12 PM 66.2 °F 62.6 °F 88% 30.09 in 6.2 mi SSE 19.6 mph - N/A Rain Rain Showers
12:30 PM 66.2 °F 62.6 °F 88% 30.09 in 6.2 mi SSE 19.6 mph - N/A Rain Light Rain
1:00 PM 66.2 °F 62.6 °F 88% 30.09 in 6.2 mi SSE 18.4 mph - N/A Rain Light Rain
1:30 PM 66.2 °F 62.6 °F 88% 30.09 in 4.3 mi SSE 18.4 mph - N/A Rain Light Rain
1:33 PM 66.2 °F 62.6 °F 88% 30.09 in 3.7 mi SSE 19.6 mph - N/A Rain Light Rain
1:52 PM 66.2 °F 64.4 °F 94% 30.09 in 6.2 mi SSE 17.3 mph - N/A Rain Light Rain
2:00 PM 67 °F 62 °F 81% 30.10 in - SSE 17.3 mph - -  
2:00 PM 66.2 °F 62.6 °F 88% 30.09 in 6.2 mi SSE 17.3 mph - N/A Rain Light Rain
2:30 PM 66.2 °F 62.6 °F 88% 30.09 in 6.2 mi SE 16.1 mph - N/A Rain Light Rain Showers
3:00 PM 66.2 °F 62.6 °F 88% 30.06 in 6.2 mi SSE 20.7 mph - N/A Rain Light Rain Showers
3:30 PM 66.2 °F 62.6 °F 88% 30.06 in 6.2 mi SSE 21.9 mph - N/A Rain Light Rain Showers
4:00 PM 68.0 °F 62.6 °F 83% 30.06 in 6.2 mi SSE 18.4 mph - N/A Rain Light Rain Showers
4:13 PM 68.0 °F 62.6 °F 83% 30.06 in 6.2 mi SSE 17.3 mph 32.2 mph N/A Rain Light Rain Showers
4:19 PM 66.2 °F 62.6 °F 88% 30.06 in 3.7 mi SSE 23.0 mph 35.7 mph N/A Rain Light Rain Showers
4:30 PM 66.2 °F 62.6 °F 88% 30.06 in 6.2 mi SSE 20.7 mph - N/A Rain Rain Showers
4:37 PM 68.0 °F 62.6 °F 83% 30.06 in 6.2 mi SSE 19.6 mph - N/A Rain Light Rain Showers
5:00 PM 68 °F 64 °F 81% 30.07 in - SSE 17.3 mph - -  
5:00 PM 68.0 °F 64.4 °F 88% 30.06 in 6.2 mi SSE 17.3 mph - N/A Rain Light Rain Showers
5:24 PM 68.0 °F 64.4 °F 88% 30.06 in 3.7 mi SE 17.3 mph - N/A Rain Light Rain Showers
5:30 PM 68.0 °F 64.4 °F 88% 30.06 in 3.7 mi SE 17.3 mph - N/A Rain Rain Showers
5:41 PM 68.0 °F 64.4 °F 88% 30.06 in 6.2 mi SSE 20.7 mph - N/A Rain Light Rain Showers
6:00 PM 69 °F 64 °F 77% 30.08 in - SSE 20.7 mph - -   Overcast
6:00 PM 68.0 °F 64.4 °F 88% 30.06 in 6.2 mi SSE 20.7 mph - N/A Rain Light Rain Showers
6:30 PM 69.8 °F 62.6 °F 78% 30.06 in 6.2 mi SSE 20.7 mph - N/A   Overcast
7:00 PM 68.0 °F 64.4 °F 88% 30.06 in 6.2 mi SSE 21.9 mph - N/A Rain Light Rain Showers
7:30 PM 68.0 °F 64.4 °F 88% 30.09 in 6.2 mi SSE 20.7 mph - N/A Rain Light Rain Showers
8:00 PM 68.0 °F 64.4 °F 88% 30.09 in 6.2 mi SE 17.3 mph - N/A Rain Light Rain Showers
8:30 PM 68.0 °F 62.6 °F 83% 30.09 in 6.2 mi SE 17.3 mph - N/A Rain Light Rain Showers
9:00 PM 68 °F 64 °F 83% 30.12 in - SE 17.3 mph - -   Overcast
9:00 PM 68.0 °F 64.4 °F 88% 30.09 in 6.2 mi SE 17.3 mph - N/A Rain Light Rain Showers
9:09 PM 68.0 °F 64.4 °F 88% 30.09 in 3.7 mi SE 18.4 mph - N/A Rain Light Rain Showers
9:26 PM 68.0 °F 64.4 °F 88% 30.12 in 6.2 mi SE 11.5 mph - N/A Rain Light Rain Showers
9:30 PM 68.0 °F 66.2 °F 94% 30.09 in 6.2 mi SE 12.7 mph - N/A Rain Light Rain Showers
9:37 PM 68.0 °F 64.4 °F 88% 30.09 in 6.2 mi SE 15.0 mph - N/A   Mostly Cloudy
10:00 PM 66.2 °F 64.4 °F 94% 30.12 in 5.0 mi East 13.8 mph - N/A Rain Light Rain Showers
10:33 PM 66.2 °F 64.4 °F 94% 30.12 in 3.7 mi East 10.4 mph - N/A Rain Light Rain Showers
11:00 PM 65 °F 64 °F 94% 30.12 in - SE 12.7 mph - -  
11:00 PM 66.2 °F 64.4 °F 94% 30.09 in 6.2 mi SE 12.7 mph - N/A   Overcast
11:01 PM 66.2 °F 64.4 °F 94% 30.09 in 6.2 mi SE 11.5 mph - N/A   Overcast
11:30 PM 66.2 °F 64.4 °F 94% 30.09 in 6.2 mi SE 15.0 mph - N/A Rain Light Rain Showers